Ankara, Turkey

9:17 PM EEST on August 30, 2016 (GMT +0300)
Esenboga

Weather History for LTAC - February, 2013

Change the Weather History Date:

Thursday, February 28, 2013

  Actual Average Record
Temperature  
Mean Temperature 37 °F -  
Max Temperature 46 °F 48 °F 64 °F (2004)
Min Temperature 28 °F 27 °F 17 °F (2003)
Degree Days  
Heating Degree Days 28    
Moisture  
Dew Point 27 °F    
Average Humidity 68    
Maximum Humidity 93    
Minimum Humidity 32    
Precipitation  
Precipitation 0.00 in - - ()
Sea Level Pressure  
Sea Level Pressure 29.94 in    
Wind  
Wind Speed 5 mph ()    
Max Wind Speed 17 mph    
Max Gust Speed -    
Visibility 6.6 miles    
Events Rain    
Averages and records for this station are not official NWS values.
T = Trace of Precipitation, MM = Missing Value Source: Averaged Metar Reports

Daily Weather History Graph

Daily Weather History Graph

Search for Another Location

Airport or City:

Trip Planner

Search our weather history database for the weather conditions in past years. The results will help you decide how hot, cold, wet, or windy it might be!

Date:

Astronomy

Feb. 28, 2013 Rise Set
Actual Time 6:23 AM EET 5:38 PM EET
Civil Twilight 5:55 AM EET 6:05 PM EET
Nautical Twilight 5:24 AM EET 6:37 PM EET
Astronomical Twilight 4:53 AM EET 7:08 PM EET
Moon 8:43 PM EET (2/28) 7:20 AM EET (2/28)
Length of Visible Light 12h 10m
Length of Day
11h 15m
Waning Gibbous, 93% of the Moon is Illuminated
Feb 28
Waning Gibbous
Mar 4
Last Quarter
Mar 11
New
Mar 19
First Quarter
Mar 27
Full

Hourly Weather History & Observations

Time (EET) Temp. Windchill Dew Point Humidity Pressure Visibility Wind Dir Wind Speed Gust Speed Precip Events Conditions
12:20 AM 32.0 °F 27.5 °F 28.4 °F 87% 29.92 in 6.2 mi North 4.6 mph - N/A   Scattered Clouds
12:50 AM 33.8 °F 30.8 °F 30.2 °F 87% 29.92 in 6.2 mi ENE 3.5 mph - N/A   Scattered Clouds
1:20 AM 30.2 °F 23.4 °F 28.4 °F 93% 29.92 in 6.2 mi NNE 6.9 mph - N/A   Scattered Clouds
1:50 AM 30.2 °F 25.4 °F 26.6 °F 86% 29.92 in 6.2 mi NNE 4.6 mph - N/A   Scattered Clouds
2:00 AM 30 °F - 27 °F 85% 29.98 in 12 mi NNE 4.6 mph - -   Partly Cloudy
2:20 AM 30.2 °F - 26.6 °F 86% 29.92 in 6.2 mi Variable 1.2 mph - N/A   Scattered Clouds
2:50 AM 32.0 °F 28.7 °F 28.4 °F 87% 29.92 in 6.2 mi North 3.5 mph - N/A   Scattered Clouds
3:20 AM 32.0 °F 24.8 °F 28.4 °F 87% 29.92 in 6.2 mi NNE 8.1 mph - N/A   Scattered Clouds
3:50 AM 30.2 °F 23.4 °F 28.4 °F 93% 29.92 in 6.2 mi NNE 6.9 mph - N/A   Scattered Clouds
4:20 AM 32.0 °F 25.6 °F 28.4 °F 87% 29.92 in 6.2 mi NNE 6.9 mph - N/A   Scattered Clouds
4:50 AM 32.0 °F 27.5 °F 28.4 °F 87% 29.92 in 6.2 mi North 4.6 mph - N/A   Scattered Clouds
5:20 AM 30.2 °F - 28.4 °F 93% 29.92 in 6.2 mi Variable 1.2 mph - N/A   Scattered Clouds
5:50 AM 30.2 °F - 26.6 °F 86% 29.92 in 6.2 mi Variable 2.3 mph - N/A   Scattered Clouds
6:20 AM 30.2 °F 26.7 °F 26.6 °F 86% 29.92 in 6.2 mi North 3.5 mph - N/A   Scattered Clouds
6:50 AM 28.4 °F - 26.6 °F 93% 29.92 in 6.2 mi Variable 2.3 mph - N/A   Scattered Clouds
7:20 AM 30.2 °F - 26.6 °F 86% 29.92 in 6.2 mi Variable 2.3 mph - N/A   Scattered Clouds
7:50 AM 33.8 °F - 28.4 °F 81% 29.92 in 6.2 mi Calm Calm - N/A   Scattered Clouds
8:00 AM 33 °F - 28 °F 73% 30.01 in 12 mi Calm Calm - -   Partly Cloudy
8:20 AM 35.6 °F 32.8 °F 28.4 °F 75% 29.92 in 6.2 mi North 3.5 mph - N/A   Scattered Clouds
8:50 AM 37.4 °F - 28.4 °F 70% 29.92 in 6.2 mi Variable 2.3 mph - N/A   Scattered Clouds
9:20 AM 39.2 °F 35.9 °F 26.6 °F 61% 29.95 in 6.2 mi NNE 4.6 mph - N/A   Scattered Clouds
9:50 AM 41.0 °F 37.1 °F 26.6 °F 57% 29.92 in 6.2 mi North 5.8 mph - N/A   Scattered Clouds
10:20 AM 44.6 °F 38.8 °F 26.6 °F 49% 29.92 in 6.2 mi NNE 11.5 mph - N/A   Scattered Clouds
10:50 AM 42.8 °F 37.0 °F 26.6 °F 53% 29.92 in 6.2 mi North 10.4 mph - N/A   Scattered Clouds
11:20 AM 44.6 °F 38.4 °F 23.0 °F 43% 29.92 in 6.2 mi NE 12.7 mph - N/A   Scattered Clouds
11:50 AM 44.6 °F 39.7 °F 26.6 °F 49% 29.92 in 6.2 mi North 9.2 mph - N/A   Scattered Clouds
12:20 PM 44.6 °F 39.2 °F 24.8 °F 46% 29.92 in 6.2 mi NNW 10.4 mph - N/A   Scattered Clouds
12:50 PM 44.6 °F 38.8 °F 28.4 °F 53% 29.92 in 6.2 mi NW 11.5 mph - N/A   Scattered Clouds
1:20 PM 44.6 °F 40.2 °F 26.6 °F 49% 29.92 in 6.2 mi North 8.1 mph - N/A   Scattered Clouds
1:50 PM 44.6 °F 39.7 °F 24.8 °F 46% 29.92 in 6.2 mi North 9.2 mph - N/A   Scattered Clouds
2:00 PM 45 °F - 25 °F 32% 29.99 in 12 mi North 9.2 mph - -   Partly Cloudy
2:20 PM 44.6 °F 39.2 °F 26.6 °F 49% 29.89 in 6.2 mi North 10.4 mph - N/A   Scattered Clouds
2:50 PM 44.6 °F 39.2 °F 24.8 °F 46% 29.89 in 6.2 mi NNE 10.4 mph - N/A   Scattered Clouds
3:20 PM 44.6 °F 38.4 °F 24.8 °F 46% 29.89 in 6.2 mi NNW 12.7 mph - N/A   Mostly Cloudy
3:50 PM 44.6 °F 38.1 °F 26.6 °F 49% 29.92 in 6.2 mi NNW 13.8 mph - N/A Rain Light Rain Showers
4:20 PM 42.8 °F 34.8 °F 26.6 °F 53% 29.92 in 6.2 mi North 17.3 mph - N/A   Mostly Cloudy
4:50 PM 42.8 °F 36.2 °F 26.6 °F 53% 29.92 in 6.2 mi North 12.7 mph - N/A   Mostly Cloudy
5:20 PM 41.0 °F 33.9 °F 26.6 °F 57% 29.92 in 6.2 mi NNW 12.7 mph - N/A   Scattered Clouds
5:50 PM 41.0 °F 34.7 °F 26.6 °F 57% 29.95 in 6.2 mi NNW 10.4 mph - N/A   Scattered Clouds
6:20 PM 39.2 °F 35.0 °F 26.6 °F 61% 29.95 in 6.2 mi North 5.8 mph - N/A   Scattered Clouds
6:50 PM 37.4 °F 32.8 °F 26.6 °F 65% 29.95 in 6.2 mi NE 5.8 mph - N/A   Scattered Clouds
7:20 PM 37.4 °F 34.9 °F 26.6 °F 65% 29.95 in 6.2 mi North 3.5 mph - N/A   Scattered Clouds
7:50 PM 35.6 °F - 24.8 °F 65% 29.95 in 6.2 mi Variable 2.3 mph - N/A   Scattered Clouds
8:00 PM 36 °F - 25 °F 53% 30.06 in 12 mi North 2.3 mph - -   Partly Cloudy
8:20 PM 35.6 °F - 26.6 °F 70% 29.95 in 6.2 mi Variable 1.2 mph - N/A   Scattered Clouds
8:50 PM 33.8 °F - 26.6 °F 75% 29.98 in 6.2 mi Variable 2.3 mph - N/A   Scattered Clouds
9:20 PM 33.8 °F 30.8 °F 24.8 °F 70% 29.98 in 6.2 mi NNE 3.5 mph - N/A   Scattered Clouds
9:50 PM 32.0 °F - 24.8 °F 75% 29.98 in 6.2 mi Variable 1.2 mph - N/A   Scattered Clouds
10:20 PM 32.0 °F 27.5 °F 24.8 °F 75% 30.01 in 6.2 mi Variable 4.6 mph - N/A   Scattered Clouds
10:50 PM 30.2 °F - 24.8 °F 80% 30.01 in 6.2 mi Variable 1.2 mph - N/A   Partly Cloudy
11:20 PM 32.0 °F - 23.0 °F 69% 30.01 in 6.2 mi Variable 2.3 mph - N/A   Partly Cloudy
11:50 PM 32.0 °F - 24.8 °F 75% 29.98 in 6.2 mi Variable 2.3 mph - N/A   Scattered Clouds